{"data":{"norad_id":60365,"epoch":"2026-05-24T21:13:33.466368Z","epoch_age_seconds":78824,"freshness":"FRESH","line1":"1 60365U 24138L   26144.88441512  .00000777  00000+0  36790-4 0  9997","line2":"2 60365  53.1615 315.6655 0001321  82.7060 277.4091 15.31701056102297","mean_motion":15.31701056,"eccentricity":0.0001321,"inclination_deg":53.1615,"raan_deg":315.6655,"arg_perigee_deg":82.706,"mean_anomaly_deg":277.4091,"bstar":3.679e-5,"rev_number":10229,"period_min":94.013123145617,"perigee_km":469.83211111117,"apogee_km":471.64158358164,"semimajor_km":6848.8738473464,"source":"CELESTRAK","updated_at":"2026-05-25T13:38:19.239788Z"}}